Regional Weather Roundup
Issued by NWS Albany, NY

Home | Current Version | Previous Version | Text Only | Print | Product List | Glossary On
Versions: 1 2 3 4 5 6 7 8 9 10 11 12 13 14 15 16 17 18 19 20 21 22 23 24 25 26 27 28 29 30 31 32 33 34 35 36 37 38 39 40 41 42 43 44 45 46 47 48 49 50
000
ASUS41 KALY 030710
RWRALY

NEW YORK STATE HOURLY WEATHER ROUNDUP
NATIONAL WEATHER SERVICE ALBANY NY
300 AM EDT TUE MAY 03 2016

NOTE: "FAIR" INDICATES FEW OR NO CLOUDS BELOW 12,000 FEET WITH NO
SIGNIFICANT WEATHER AND/OR NO OBSTRUCTIONS TO VISIBILITY.

NYZ032-033-038>043-046>054-057>066-NYZ062>081-082-084-030800-
EAST


CITY           SKY/WX    TMP DP  RH WIND       PRES   REMARKS
ALBANY         CLOUDY    47  44  90 N9        29.93F
GLENS FALLS    CLOUDY    46  42  86 CALM      29.95R
POUGHKEEPSIE   LGT RAIN  52  49  89 N5        29.89F
NEWBURGH       LGT RAIN  50  50 100 NE7       29.90F FOG
MONTGOMERY     LGT RAIN  51  50  96 N6        29.88F
WHITE PLAINS   LGT RAIN  52  51  97 E3        29.88F FOG
NEW YORK CITY  RAIN      53  51  93 E7        29.88S FOG
CENTRAL PARK   RAIN      53  51  93 VRB6      29.90F FOG
$$

NYZ005>009-017-018-044>046-055-056-030800-
CENTRAL


CITY           SKY/WX    TMP DP  RH WIND       PRES   REMARKS
FULTON         FOG       38  36  92 CALM      29.96F VSB 1/4
SYRACUSE       PTCLDY    42  42 100 NW3       29.95F
ROME           FOG       43  43 100 NW3       29.96F VSB 1/4
ELMIRA         CLOUDY    46  42  86 CALM      29.92F
BINGHAMTON     CLOUDY    42  39  89 NE6       29.90F
MONTICELLO     CLOUDY    46  45  93 CALM      29.90F
$$

NYZ026>034-041>043-087-030800-
NORTH


CITY           SKY/WX    TMP DP  RH WIND       PRES   REMARKS
WATERTOWN      FOG       36  36 100 E3        29.96F VSB 1/4
FORT DRUM      NOT AVBL
MASSENA        FOG       34  33  96 CALM      29.98R VSB 1/4
SARANAC LAKE   CLOUDY    39  37  92 CALM      29.91S
PLATTSBURGH    NOT AVBL
$$

NYZ001>004-010>016-019>021-085-030800-
WEST


CITY           SKY/WX    TMP DP  RH WIND       PRES   REMARKS
NIAGARA FALLS  MOCLDY    40  35  83 CALM      29.95F
BUFFALO        PTCLDY    40  38  93 NE7       29.95S
DUNKIRK        CLOUDY    38  37  97 SE3       29.94S FOG
JAMESTOWN      CLOUDY    43  39  87 N5        29.90S
WELLSVILLE     CLOUDY    42  40  92 E6        29.92S
ROCHESTER      PTCLDY    39  37  92 NE3       29.96F
PENN YAN       CLOUDY    42  41  96 CALM      29.94F
$$

             KEY
       WCI = WIND CHILL INDEX
       VSB = VISIBILITY
       HX  = HEAT INDEX
$$



USA.gov is the U.S. government's official web portal to all federal, state and local government web resources and services.